Orbital Elements at Epoch 2459000.5 (2020-May-31.0) TDB
Reference: JPL 6 (heliocentric ecliptic J2000)
Element | Value | Uncertainty (1-sigma) | Units |
e | .1437216166814419 | 8.4063e-08 | |
a | 2.562403832440944 | 2.9315e-08 | au |
q | 2.194131011051809 | 2.2983e-07 | au |
i | 12.5336233459131 | 6.5998e-06 | deg |
node | 136.4816491845682 | 4.378e-05 | deg |
peri | 355.8468751260661 | 5.5837e-05 | deg |
M | 259.8844150901341 | 3.9217e-05 | deg |
tp | 2459417.147689600858 (2021-Jul-21.64768960) | 0.00016691 | TDB |
period | 1498.199989455666 4.10 | 2.571e-05 7.039e-08 | d yr |
n | .240288347706368 | 4.1235e-09 | deg/d |
Q | 2.930676653830079 | 3.3528e-08 | au |
|
| | Orbit Determination Parameters
Additional Information
|